Regional Weather Roundup
Issued by NWS

Home | Current Version | Previous Version | Graphics & Text | Print | Product List | Glossary On
Versions: 1 2 3 4 5 6 7 8 9 10 11 12 13 14 15 16 17 18 19 20 21 22 23 24 25 26 27 28 29 30 31 32 33 34 35 36 37 38 39 40 41 42 43 44 45 46 47 48 49 50
000
ASUS43 KLOT 260103
RWRIL

ILLINOIS REGIONAL WEATHER ROUNDUP
NATIONAL WEATHER SERVICE CHICAGO/ROMEOVILLE IL
800 PM CDT MON JUL 25 2016

NOTE: "FAIR" INDICATES FEW OR NO CLOUDS BELOW 12,000 FEET WITH NO
SIGNIFICANT WEATHER AND/OR OBSTRUCTIONS TO VISIBILITY.

* THESE STATIONS ARE NOT UNDER NWS QUALITY CONTROL. THEY ALSO MAY NOT
  REPORT WEATHER SUCH AS PRECIPITATION OR FOG.

ILZ001-002-007-009-015-016-024-260200-
NORTHWEST ILLINOIS

CITY           SKY/WX    TMP DP  RH WIND       PRES   REMARKS
MOLINE         PTCLDY    83  64  52 N5        30.00S HX  84
STERLING*      CLOUDY    81  67  62 N5        30.01S HX  83
SAVANNA*       CLEAR     80  65  60 N3        30.01S HX  81
$$

ILZ003-004-008-010-011-017-018-260200-
NORTH CENTRAL ILLINOIS

CITY           SKY/WX    TMP DP  RH WIND       PRES   REMARKS
ROCKFORD       PTCLDY    83  65  54 W6        30.01S HX  85
FREEPORT*      CLEAR     77  67  70 CALM      30.03S
ROCHELLE*      CLEAR     78  68  71 NW3       30.01S HX  80
$$

ILZ005-006-012>014-019>023-260200-
NORTHEAST ILLINOIS

CITY           SKY/WX    TMP DP  RH WIND       PRES   REMARKS
CHICAGO-OHARE  PTCLDY    81  63  54 E6        29.98S HX  82
CHICAGO-MIDWAY CLOUDY    82  61  48 E7        29.98S HX  83
AURORA         CLOUDY    79  71  76 W5        30.00S HX  82
LANSING*       CLOUDY    79  62  56 E6        29.99S HX  80
WAUKEGAN       CLEAR     77  62  59 SE3       29.99R
DUPAGE AIRPORT CLOUDY    80  65  59 NW6       29.99S HX  82
KANKAKEE*      CLOUDY    80  71  73 CALM      30.00R HX  83
WHEELING       PTCLDY    81  64  56 E3        30.00R HX  82
MORRIS*        MOCLDY    78  73  84 CALM      29.98S HX  80
NORTHERLY ISL    N/A     75  68  78 CALM        N/A
$$

LMZ740>746-260200-
SOUTHERN LAKE MICHIGAN

STATION/POSITION SKY/WX   TEMP    WIND        PRES    VSBY  WAVE
                          AIR SEA DIR/SP/G                  HT/PER
                          (F)     (DEG/KT/KT) (MB)    (MI)  (FT/S)
SOUTHERN BUOY              76 75  170/  4/  6 1014.6          1
WILMETTE HARBOR            73 69  190/  4/  4   N/A           1
HARRISON CRIB              80     120/  7/  8   N/A
BURNHAM HARBOR             74      CALM  /  3   N/A
CALUMET HARBOR             76                   N/A
BURNS HARBOR               79      80/  6/ 11 1015.9S
MICHIGAN CITY              78      20/  6/  6   N/A
MICHIGAN CITY 6N           77 76   60/  4/  4   N/A           1
ST. JOSEPH                 78 77   50/  4/  4 1015.1F         1/ 4
$$

ILZ025>027-034>036-040-047-049-050-058-095>099-260200-
WEST-CENTRAL ILLINOIS

CITY           SKY/WX    TMP DP  RH WIND       PRES   REMARKS
QUINCY         PTCLDY    78  71  79 NE3       30.02R HX  80
GALESBURG*     PTCLDY    79  70  73 CALM      30.01S HX  81
MACOMB*        PTCLDY    78  71  80 CALM      30.03S HX  80
JACKSONVILLE*  MOCLDY    78  73  86 N3        30.00R
PITTSFIELD*    CLEAR     78  72  83 CALM      30.03R HX  80
$$

ILZ028>032-037-038-041>044-048-051>054-059>061-260200-
CENTRAL ILLINOIS

CITY           SKY/WX    TMP DP  RH WIND       PRES   REMARKS
BLOOMINGTON    MOCLDY    78  70  76 N5        30.02R HX  80
DECATUR        MOCLDY    81  74  79 NE6       30.00R HX  86
PEORIA         MOCLDY    80  71  74 CALM      30.01R HX  84
LACON*         CLOUDY    79  69  71 CALM      29.99S HX  81
LINCOLN*       MOCLDY    79  74  84 N3        30.00R HX  82
SPRINGFIELD    PTCLDY    81  73  76 N7        30.00R HX  86
TAYLORVILLE    NOT AVBL
$$

ILZ033-039-045-046-055>057-062-063-260200-
EAST-CENTRAL ILLINOIS

CITY           SKY/WX    TMP DP  RH WIND       PRES   REMARKS
CHAMPAIGN      MOCLDY    79  72  79 N6        30.00R HX  82
MATTOON        PTCLDY    81  72  74 CALM      29.99R HX  85
$$

ILZ079-100>102-260200-
SOUTHWEST ILLINOIS

CITY           SKY/WX    TMP DP  RH WIND       PRES   REMARKS
BELLEVILLE     MOCLDY    82  79  88 NE3       29.97R HX  92
CAHOKIA*       MOCLDY    84  74  71 N9        29.97R HX  91
SPARTA*        CLOUDY    83  77  82 CALM      29.99R HX  91
$$

ILZ064>066-069>071-074>076-080>082-084>086-088>090-092>094-260200-
SOUTH-CENTRAL ILLINOIS

CITY           SKY/WX    TMP DP  RH WIND       PRES   REMARKS
CARBONDALE     CLOUDY    81  74  79 SE3       29.97S HX  86
EFFINGHAM*     CLOUDY    82  76  81 CALM      30.00S HX  90
MARION         CLOUDY    79  77  94 S3        29.98S HX  83
MT. VERNON     CLOUDY    79  72  78 CALM      29.97S HX  82
CENTRALIA*     CLOUDY    82  78  89 CALM      29.98R HX  91
SALEM*         CLOUDY    82  78  86 CALM      29.98S HX  91
METROPOLIS*    CLOUDY    80  77  91 CALM      29.97F HX  85
$$

ILZ067-068-072-073-078-083-087-091-260200-
SOUTHEAST ILLINOIS

CITY           SKY/WX    TMP DP  RH WIND       PRES   REMARKS
LAWRENCEVILLE  CLOUDY    79  77  94 CALM      29.98R HX  83
FLORA*         CLOUDY    81  77  89 CALM      29.98S HX  88
FAIRFIELD*     MOCLDY    77  76  96 CALM      29.97S
HARRISBURG*    CLOUDY    75  75  99 CALM      29.98R
ROBINSON*      CLOUDY    80  77  89 N3        29.98S HX  86
CARMI*         CLOUDY    77  76  98 CALM      29.97R
$$

ABBREVIATIONS USED IN REMARKS
   TC - TEMPERATURE IN CELSIUS
  WCI - WIND CHILL INDEX
   HX - HEAT INDEX
  VSB - VISIBILITY
$$





USA.gov is the U.S. government's official web portal to all federal, state and local government web resources and services.